Vancouver, WA

2:28 PM PDT on June 23, 2017 (GMT -0700)
Pearson

Weather History for KVUO - March, 2014

Change the Weather History Date:

Monday, March 10, 2014

  Actual Average Record
Temperature  
Mean Temperature 46 °F 47 °F  
Max Temperature 54 °F 56 °F 74 °F (2005)
Min Temperature 37 °F 38 °F 26 °F (1999)
Degree Days  
Heating Degree Days 19    
Month to date heating degree days 161  
Since 1 July heating degree days 3624  
Cooling Degree Days 0    
Month to date cooling degree days 0  
Year to date cooling degree days 0  
Moisture  
Dew Point 41 °F    
Average Humidity 76    
Maximum Humidity 93    
Minimum Humidity 59    
Precipitation  
Precipitation 0.11 in 0.11 in 1.01 in (1983)
Month to date precipitation 3.06 1.15  
Year to date precipitation 9.95 10.68  
Sea Level Pressure  
Sea Level Pressure 30.21 in    
Wind  
Wind Speed 4 mph (WNW)    
Max Wind Speed 15 mph    
Max Gust Speed 21 mph    
Visibility 10 miles    
Events Rain    
T = Trace of Precipitation, MM = Missing Value Source: NWS Daily Summary

Daily Weather History Graph

Daily Weather History Graph

Search for Another Location

Airport or City:

Trip Planner

Search our weather history database for the weather conditions in past years. The results will help you decide how hot, cold, wet, or windy it might be!

Date:

Astronomy

Mar. 10, 2014 Rise Set
Actual Time 7:32 AM PDT 7:10 PM PDT
Civil Twilight 7:02 AM PDT 7:39 PM PDT
Nautical Twilight 6:28 AM PDT 8:14 PM PDT
Astronomical Twilight 5:53 AM PDT 8:48 PM PDT
Moon 1:46 PM PDT (3/10) 4:00 AM PDT (3/10)
Length of Visible Light 12h 36m
Length of Day
11h 37m
Waxing Gibbous, 71% of the Moon is Illuminated
Mar 10
Waxing Gibbous
Mar 16
Full
Mar 23
Last Quarter
Mar 30
New
Apr 7
First Quarter

Hourly Weather History & Observations

Time (PDT) Temp. Windchill Dew Point Humidity Pressure Visibility Wind Dir Wind Speed Gust Speed Precip Events Conditions
12:53 AM 48.9 °F - 45.0 °F 86% 29.99 in 10.0 mi NE 3.5 mph - 0.04 in   Mostly Cloudy
1:53 AM 46.9 °F - 45.0 °F 93% 29.99 in 10.0 mi Calm Calm - N/A   Scattered Clouds
2:53 AM 46.9 °F - 45.0 °F 93% 30.00 in 10.0 mi Calm Calm - N/A   Scattered Clouds
3:53 AM 46.9 °F - 45.0 °F 93% 30.01 in 10.0 mi Calm Calm - N/A   Mostly Cloudy
4:53 AM 45.0 °F - 43.0 °F 93% 30.01 in 10.0 mi Calm Calm - N/A   Overcast
5:53 AM 45.0 °F - 42.1 °F 90% 30.03 in 10.0 mi Calm Calm - N/A   Partly Cloudy
6:53 AM 45.0 °F - 43.0 °F 93% 30.05 in 10.0 mi Calm Calm - N/A   Overcast
7:53 AM 46.9 °F - 44.1 °F 90% 30.09 in 8.0 mi WNW 4.6 mph - 0.01 in Rain Light Rain
8:53 AM 46.0 °F 44.8 °F 41.0 °F 83% 30.12 in 10.0 mi NW 3.5 mph - 0.04 in Rain Light Rain
9:53 AM 48.0 °F - 41.0 °F 77% 30.16 in 10.0 mi Calm Calm - 0.00 in   Mostly Cloudy
10:53 AM 52.0 °F - 41.0 °F 66% 30.19 in 10.0 mi NW 6.9 mph - N/A   Overcast
11:24 AM 52.0 °F - 39.9 °F 63% 30.21 in 10.0 mi WNW 11.5 mph - N/A   Overcast
11:53 AM 52.0 °F - 39.9 °F 63% 30.22 in 10.0 mi NW 8.1 mph - N/A   Overcast
12:53 PM 51.1 °F - 42.1 °F 71% 30.23 in 10.0 mi WSW 5.8 mph - 0.01 in   Overcast
1:23 PM 50.0 °F - 43.0 °F 77% 30.24 in 2.0 mi WNW 5.8 mph - 0.04 in Rain Light Rain
1:32 PM 51.1 °F - 44.1 °F 77% 30.24 in 10.0 mi West 5.8 mph - 0.04 in   Overcast
1:53 PM 50.0 °F - 42.1 °F 74% 30.25 in 10.0 mi West 8.1 mph - 0.04 in   Mostly Cloudy
2:53 PM 53.1 °F - 41.0 °F 64% 30.25 in 10.0 mi West 8.1 mph - N/A   Mostly Cloudy
3:53 PM 54.0 °F - 41.0 °F 62% 30.27 in 10.0 mi NW 9.2 mph - 0.01 in   Partly Cloudy
4:53 PM 52.0 °F - 37.9 °F 59% 30.30 in 10.0 mi WNW 13.8 mph - N/A   Overcast
5:53 PM 52.0 °F - 39.0 °F 61% 30.32 in 10.0 mi NW 11.5 mph 20.7 mph N/A   Overcast
6:53 PM 50.0 °F - 37.9 °F 63% 30.35 in 10.0 mi WNW 6.9 mph - N/A   Mostly Cloudy
7:53 PM 48.0 °F - 37.9 °F 68% 30.38 in 10.0 mi WNW 9.2 mph - N/A   Clear
8:53 PM 46.9 °F - 36.0 °F 66% 30.41 in 10.0 mi WNW 4.6 mph - N/A   Clear
9:53 PM 41.0 °F - 35.1 °F 79% 30.44 in 10.0 mi Calm Calm - N/A   Clear
10:53 PM 39.9 °F - 36.0 °F 86% 30.48 in 10.0 mi Calm Calm - N/A   Mostly Cloudy
11:53 PM 39.0 °F - 36.0 °F 89% 30.51 in 10.0 mi Calm Calm - N/A   Overcast